カタログに戻る

STARLINK-35203

運用中通信VLEO
NORAD 65498·PAYLOAD·🇺🇸 United States

打ち上げ Sep 5, 2025 から Cape Canaveral Space Force Station

Loading…

次のパス (今後24時間)

TLE

最新Source: CelesTrak SupGP

元期: Sep 15, 2026, 02:57 UTC

1 65498C 25198G   26258.12340278  .00015236  00000+0  45027-3 0  2582
2 65498  53.1563 108.6426 0001259  86.7221  66.3797 15.34375811    14

AllMySatでSTARLINK-35203をリアルタイム追跡

Download on the App Store